Wind_Speed
31 30 30 30 30 31 31 31 32 32 33 34 34 35 35 35 35 36 37 37 38 38 39 40 40 41 42 42 42 43 43 43 43 44 45 45 46 46 47 48 48 49 49 50 51 52 52 52 52 52 53 54 54 55 55 56 57 57 58 58 59 59 59 60 61 61 61 60 59 57 54 53 54 54 54 55 55 55 55 55 56 56 56 55 54
32 32 32 32 32 32 31 31 31 32 33 33 34 34 35 35 36 37 37 37 38 38 39 40 41 41 42 43 43 43 43 43 43 44 44 45 46 46 47 48 49 50 51 52 52 53 53 53 53 53 53 54 54 55 55 56 56 56 57 57 57 58 58 59 59 59 59 59 58 56 55 55 55 55 55 56 56 56 56 56 56 56 55 54 54
33 34 34 34 34 33 33 32 32 32 32 33 33 34 35 37 38 39 39 39 39 40 40 41 42 43 43 43 43 43 43 44 44 45 46 46 47 48 48 49 50 51 52 53 53 53 54 54 54 53 53 54 54 54 54 55 55 55 55 56 56 56 56 57 57 57 57 57 57 56 56 56 56 56 56 56 56 57 57 57 56 55 55 54 54
33 34 34 35 35 34 34 34 33 33 33 34 35 36 37 38 39 41 41 41 42 42 42 43 44 45 45 46 46 46 46 47 47 47 48 48 48 49 49 50 51 51 52 53 53 53 53 53 52 52 52 53 53 53 53 54 54 54 54 54 55 55 55 54 54 55 55 56 56 56 55 55 56 56 56 56 57 58 57 57 56 55 54 54 54
32 33 34 34 35 35 35 35 34 34 35 36 37 38 40 41 42 44 45 45 46 46 46 46 47 48 48 48 48 48 49 49 49 49 49 49 49 49 50 50 51 51 52 52 52 52 52 51 50 50 51 51 52 52 52 52 52 53 53 53 53 53 52 52 52 52 53 54 55 55 55 55 56 56 57 58 58 58 58 57 56 54 53 53 54
32 33 34 35 36 36 36 36 36 37 38 39 41 42 43 44 45 47 48 48 49 48 48 48 49 49 50 50 50 50 50 50 50 50 50 50 49 49 50 50 50 50 50 50 50 49 49 49 48 49 50 50 50 51 51 51 52 52 52 52 51 50 50 50 50 50 51 52 54 55 55 56 57 57 58 58 58 59 59 58 55 54 53 54 54
34 35 37 38 38 39 39 40 40 41 43 44 45 46 47 48 48 49 50 50 49 49 49 49 49 49 50 50 50 50 50 50 50 50 49 49 49 49 49 48 48 48 48 48 48 48 48 48 48 49 49 50 50 50 51 51 51 51 51 50 50 49 49 49 49 50 51 52 54 56 57 58 58 59 59 59 59 60 59 57 55 54 54 55 56
38 39 40 41 42 43 44 45 46 47 48 49 49 50 50 51 51 51 51 50 50 51 51 51 51 50 50 50 50 51 51 50 50 49 48 48 47 47 47 47 47 47 47 47 47 48 48 48 49 49 49 49 49 49 49 50 50 50 50 49 49 49 50 50 50 51 52 54 55 57 58 59 59 59 59 59 60 59 58 57 57 57 57 57 58
43 44 44 45 47 48 49 50 51 51 52 52 52 52 52 51 51 51 51 51 52 52 53 53 52 51 51 51 51 51 51 50 49 48 48 47 47 47 46 46 46 47 47 47 48 48 48 49 49 49 49 49 48 48 49 49 49 50 50 51 51 51 52 52 53 54 55 55 56 57 58 59 59 59 59 59 59 59 59 60 61 60 59 59 60
43 44 45 46 47 48 49 51 51 52 52 52 52 52 51 51 51 51 51 52 52 53 53 52 52 52 51 51 51 50 50 49 48 48 47 47 47 47 47 47 47 47 48 48 49 49 49 49 49 49 48 48 48 49 49 50 51 52 52 53 53 54 54 55 55 55 55 56 56 56 57 58 58 58 59 59 60 60 61 62 62 61 61 62 62
41 42 42 43 43 44 45 46 47 48 48 49 50 50 50 50 51 51 51 51 51 51 51 51 50 50 49 49 48 48 48 47 47 47 47 47 48 48 48 48 48 49 49 49 49 49 49 49 49 49 49 49 50 50 51 52 52 53 53 54 54 54 54 54 54 54 54 54 55 55 56 57 58 58 59 60 60 61 61 61 61 62 63 64 64
41 41 41 41 41 41 41 41 42 43 44 45 45 46 47 47 47 48 48 48 48 48 48 47 47 46 46 46 46 46 46 47 47 47 48 48 49 49 49 49 49 49 48 48 48 48 48 48 48 49 49 50 50 50 51 51 52 52 52 52 52 52 52 52 52 52 53 53 54 55 56 57 58 58 58 59 59 59 60 61 62 63 63 64 65
40 40 40 40 40 40 39 39 39 40 40 40 41 41 41 41 42 42 43 43 43 43 43 43 43 43 43 43 44 44 45 46 46 46 47 47 47 47 47 47 48 48 48 48 48 48 48 48 48 48 48 49 49 49 49 49 49 49 49 50 50 50 50 51 52 52 53 54 55 56 56 57 58 58 57 57 58 59 60 61 62 62 63 64 65
39 39 38 39 39 39 38 38 38 38 38 38 38 38 38 38 38 38 39 39 40 40 40 41 41 41 41 42 42 42 43 43 44 44 44 45 45 46 46 46 47 47 47 47 47 47 47 47 47 46 46 46 46 46 47 47 47 48 49 49 50 50 51 52 53 53 54 54 55 56 57 57 57 57 57 57 58 59 60 61 61 62 63 64 65
38 37 37 37 38 38 38 38 38 38 38 37 37 37 37 37 37 37 38 38 39 39 40 40 40 40 40 41 41 41 41 42 42 42 43 43 44 44 45 45 45 45 45 45 45 44 44 43 43 43 43 43 44 45 46 46 47 48 49 50 50 51 52 52 52 53 54 55 55 55 56 56 57 56 56 57 58 59 59 60 61 62 63 64 64
38 38 37 37 37 37 37 37 38 38 37 37 38 38 38 38 38 38 38 39 39 40 40 41 41 41 41 41 41 41 41 41 41 41 42 42 43 43 43 43 43 43 43 42 41 41 40 40 40 41 42 42 43 45 46 47 48 49 49 50 50 51 51 51 52 52 53 54 55 55 54 54 55 55 56 57 58 58 58 60 61 62 63 63 64
38 38 38 37 37 37 37 38 38 38 38 38 38 38 38 39 39 39 39 40 40 41 41 42 42 42 42 41 41 41 40 40 40 40 40 41 41 41 41 41 41 40 40 39 39 39 39 40 40 41 42 42 43 44 45 46 48 48 49 50 50 50 51 51 51 51 51 52 53 54 54 54 54 55 56 57 57 57 58 60 61 61 62 62 63
37 37 37 37 36 36 36 37 38 38 38 38 38 38 38 39 39 39 40 40 41 41 41 42 42 42 41 40 40 39 39 38 38 38 39 40 40 39 39 39 38 38 38 38 39 39 39 40 40 41 41 42 43 43 44 45 46 47 47 48 49 50 50 49 49 49 50 51 52 53 54 54 55 56 56 56 56 57 59 60 59 58 60 61 61
35 35 35 36 36 36 36 36 36 37 37 37 38 38 38 38 38 39 39 39 39 39 40 39 39 39 38 38 37 37 37 37 37 38 38 39 38 38 38 37 37 37 38 38 39 39 40 40 40 41 41 42 42 43 43 44 45 46 46 47 48 48 48 47 48 48 49 50 51 52 53 53 53 54 55 55 54 55 57 58 57 57 58 58 57
34 35 35 35 35 35 35 35 36 36 36 36 37 37 37 37 37 37 37 37 36 36 36 36 36 35 35 35 35 36 36 36 37 37 37 37 37 37 37 37 38 38 38 39 39 39 39 40 40 41 41 42 42 42 43 44 44 45 46 47 47 47 46 46 48 49 49 50 50 51 52 52 51 52 53 54 54 53 54 55 55 56 56 56 56
34 34 34 34 34 35 35 35 35 35 35 35 35 35 35 35 34 34 33 33 32 32 32 32 33 33 33 34 34 35 35 35 36 36 36 36 36 37 37 37 38 38 38 38 39 39 39 39 40 41 41 42 42 42 43 43 43 44 46 47 48 47 47 48 49 50 50 51 51 52 52 52 51 51 51 52 52 52 52 52 53 54 54 55 54
33 33 33 34 34 34 35 35 35 35 34 34 34 33 33 32 32 31 30 29 29 29 30 30 31 32 32 33 33 33 34 34 34 34 34 35 35 36 36 37 37 38 38 38 39 39 39 40 40 40 41 42 42 43 44 44 44 45 46 46 47 48 50 52 52 51 51 51 51 51 51 50 50 49 49 49 49 49 49 49 50 51 51 52 52
34 33 33 33 33 34 34 34 34 34 33 33 32 31 31 30 29 29 28 28 28 28 29 29 29 30 31 31 32 32 32 32 32 32 33 33 34 34 35 36 37 37 38 39 39 40 40 40 41 41 42 43 43 44 45 45 45 45 45 46 47 49 50 51 51 51 51 51 50 50 50 50 49 48 46 45 45 45 46 47 47 48 49 50 51
34 33 33 33 33 33 33 33 33 32 31 30 30 29 29 28 28 28 27 27 27 27 28 28 28 28 29 29 31 32 31 31 31 31 31 32 32 33 34 35 37 38 39 40 40 40 41 41 41 42 42 43 43 43 44 43 43 44 45 45 46 46 46 47 48 48 49 49 50 50 50 50 50 49 47 45 44 43 44 45 46 47 48 50 50
34 33 32 32 32 31 31 30 30 29 28 27 27 27 27 27 27 27 27 26 26 27 27 27 27 28 28 28 29 31 32 32 31 31 31 31 32 33 34 36 37 38 39 40 40 41 41 41 42 42 42 42 42 42 42 42 41 42 44 45 45 44 44 45 45 46 47 47 47 47 48 48 48 49 49 49 48 47 46 45 46 46 47 49 50
33 32 31 30 30 29 28 28 28 27 26 25 25 25 25 25 25 26 26 26 25 26 26 27 27 28 28 29 29 30 31 32 32 32 32 32 32 34 35 36 38 39 39 40 40 40 41 42 42 42 42 42 42 42 42 42 42 42 43 44 45 45 44 44 45 45 46 46 46 47 47 47 48 48 49 50 51 50 50 49 49 48 48 49 50
31 30 29 29 28 27 26 26 26 25 24 24 24 24 24 24 24 25 25 25 25 25 26 27 28 29 29 29 30 30 30 30 31 32 33 34 34 35 36 37 38 38 39 39 40 41 41 42 42 43 43 43 42 42 42 41 41 41 41 42 43 44 44 44 44 45 45 45 46 47 47 47 48 49 50 50 51 51 51 52 53 53 52 53 54
30 29 28 27 26 26 25 24 24 24 24 24 24 24 24 24 24 24 24 24 25 25 26 27 28 29 30 30 30 30 29 29 30 32 33 34 36 37 38 38 38 38 39 39 40 41 41 42 42 42 42 42 42 41 41 41 40 40 40 40 41 41 42 43 44 44 44 45 46 46 47 48 49 49 50 51 52 52 53 54 55 55 55 56 58
29 28 26 25 25 24 24 23 23 23 23 23 24 24 24 24 24 24 24 24 25 26 27 28 29 30 30 31 31 30 30 29 30 32 33 34 36 37 38 38 39 39 40 40 40 40 40 40 40 41 41 41 41 41 41 41 42 42 41 41 41 41 41 42 42 43 44 44 45 46 46 47 48 49 50 51 52 53 54 55 56 57 57 58 59
28 27 26 24 23 23 23 23 23 22 22 22 23 23 23 23 23 24 24 25 26 26 27 28 29 30 31 31 31 31 31 30 30 30 32 33 35 36 37 38 40 41 40 39 39 39 39 39 39 39 40 40 41 41 41 41 42 42 42 42 43 43 42 42 42 43 43 44 45 46 46 48 49 49 50 52 52 53 54 55 55 56 57 58 59
26 25 25 24 23 22 22 22 22 22 21 21 21 22 23 24 24 24 24 25 26 27 28 28 29 31 32 32 32 32 32 32 31 31 31 32 33 35 36 38 39 39 38 37 37 38 38 38 39 39 39 40 40 40 40 40 40 41 41 42 42 43 43 43 43 43 43 44 45 46 47 48 49 50 51 52 53 53 54 54 55 55 56 57 58
23 23 23 23 22 22 22 21 21 21 21 21 21 21 22 23 24 26 26 27 27 28 29 30 31 31 32 33 34 34 34 33 33 33 32 32 33 35 36 36 36 36 36 36 37 38 38 38 39 39 39 39 40 40 40 40 40 40 40 40 40 41 41 42 42 43 43 44 45 46 47 48 49 50 51 52 53 54 54 55 55 56 56 57 58
22 21 21 21 22 22 22 21 21 21 21 21 21 22 22 22 23 25 26 28 29 30 30 31 32 32 33 34 35 35 35 35 34 34 33 34 35 35 35 34 35 34 35 36 37 37 38 38 38 39 39 40 40 40 40 40 41 40 39 39 38 39 39 39 40 41 42 43 44 45 46 47 48 49 50 51 53 54 54 55 55 56 57 57 58
21 21 20 20 20 21 21 21 21 21 21 21 22 22 23 23 23 23 24 26 28 30 32 33 34 33 33 34 34 35 35 35 35 34 34 35 36 35 34 34 34 34 34 35 35 36 37 37 38 38 39 39 39 40 40 40 40 40 39 39 38 38 39 39 39 40 41 41 42 43 44 45 46 47 48 49 51 52 53 54 54 55 55 56 56
20 20 20 19 19 20 20 20 20 21 21 22 22 22 23 24 24 25 25 25 25 27 29 32 33 33 34 34 34 34 34 33 33 33 34 34 34 33 32 33 33 33 33 33 34 34 35 36 36 37 37 38 38 38 38 38 37 37 38 38 38 39 39 39 40 40 41 41 42 42 43 44 45 45 46 47 48 49 51 52 52 53 54 54 55
20 19 19 19 19 19 19 20 20 21 21 22 22 23 24 24 25 26 26 27 27 27 27 29 31 32 32 33 32 32 32 32 31 31 32 32 32 31 31 32 32 32 32 33 33 33 33 34 35 35 36 36 36 36 35 35 35 36 36 37 38 38 39 39 40 40 41 41 42 42 43 44 45 45 46 47 47 48 49 50 51 52 53 54 54
20 19 19 19 19 19 20 20 20 21 21 22 23 24 25 26 27 27 28 28 28 28 27 27 28 28 30 31 31 30 30 31 31 30 30 30 30 30 31 31 31 31 32 32 32 32 32 33 33 33 33 34 34 34 34 34 34 35 36 37 37 38 39 39 40 40 41 41 42 42 43 43 44 45 45 46 47 47 48 49 50 51 52 53 54
19 19 19 19 20 20 20 20 21 21 22 23 24 25 26 27 27 28 28 28 28 27 26 26 26 26 27 28 29 29 29 29 29 29 30 30 30 30 30 31 31 31 31 31 31 31 31 30 31 31 31 31 32 32 33 34 35 35 36 37 37 38 38 39 39 40 40 40 40 41 41 42 43 44 44 45 46 46 47 48 49 50 50 51 52
19 19 19 19 20 20 20 21 22 22 23 24 25 26 26 27 27 27 27 27 27 26 25 25 26 26 27 27 27 27 27 27 28 28 29 29 29 30 30 30 31 31 30 30 29 29 29 29 29 29 30 31 31 32 33 34 35 35 36 36 36 37 37 37 38 38 38 39 39 40 41 41 42 42 43 43 44 44 45 46 46 47 48 49 49
19 19 19 19 20 21 21 22 23 23 24 25 26 26 27 27 27 27 27 26 25 25 25 25 26 27 27 26 26 26 26 26 27 27 27 28 28 28 29 29 29 29 28 28 28 28 28 28 29 29 30 31 32 33 34 34 35 35 35 34 34 34 35 35 36 37 37 38 38 39 39 40 40 41 41 42 42 42 43 43 43 44 44 45 45
19 20 20 20 21 21 22 23 23 24 24 25 26 26 27 27 27 26 26 25 24 24 25 26 27 27 26 25 25 26 26 26 26 26 26 26 27 27 28 28 27 27 27 27 27 27 27 28 29 30 30 31 32 33 33 33 33 33 32 32 32 33 33 34 34 35 35 36 37 37 38 39 40 40 40 40 40 40 40 40 40 40 40 40 41
19 20 20 21 22 22 23 24 24 24 25 26 26 27 27 27 26 26 25 24 24 24 25 26 26 26 26 25 26 26 27 27 26 26 26 26 26 27 27 27 27 27 26 26 26 26 27 28 29 29 30 31 31 31 31 31 31 31 31 31 31 31 32 32 32 33 33 34 35 36 37 38 38 39 38 38 37 37 36 36 36 36 36 36 36
19 20 21 21 22 23 23 24 24 25 25 26 26 27 27 26 26 25 25 24 24 25 25 26 26 26 26 26 27 27 28 28 27 26 25 25 26 26 26 27 27 27 27 26 26 26 27 28 28 29 29 29 29 29 29 29 29 30 30 30 30 30 30 30 31 31 32 32 33 34 35 36 36 36 35 35 34 33 33 32 32 32 32 32 32
20 20 21 22 23 23 24 24 24 25 25 26 26 26 26 26 26 25 25 25 25 25 26 26 26 26 27 27 27 28 28 28 28 26 25 25 25 26 26 26 27 26 26 26 26 26 27 27 28 28 28 27 27 27 27 28 28 28 28 28 28 28 28 29 29 29 30 30 31 32 32 33 32 32 32 31 31 30 29 29 28 28 28 28 29
20 21 21 22 23 23 24 24 24 25 26 26 26 26 26 26 25 25 25 25 25 26 26 27 27 27 27 28 28 28 28 29 28 27 25 25 25 25 26 26 26 26 26 26 26 26 26 26 26 26 26 25 25 26 26 26 26 26 26 26 26 26 26 26 26 27 27 28 28 29 29 29 29 28 28 28 27 27 26 26 26 25 25 25 26
21 21 22 23 23 23 24 25 25 26 26 27 26 26 26 26 26 25 25 25 26 26 26 27 28 28 28 28 27 27 28 28 28 27 26 25 25 25 26 26 26 25 25 25 25 25 25 25 25 24 24 24 24 24 24 25 24 24 24 24 24 24 24 24 24 25 25 25 25 25 25 25 25 24 24 24 23 23 23 23 23 23 22 23 23
22 22 23 23 23 24 24 25 26 26 27 27 27 27 26 26 26 26 25 26 26 26 26 27 27 27 27 27 27 27 27 27 27 27 26 25 25 25 25 25 25 25 25 24 24 24 24 23 23 23 22 23 23 23 23 23 22 22 22 22 22 22 22 22 22 22 22 23 23 22 22 22 21 21 20 20 20 20 20 20 20 20 20 20 20
23 23 23 24 24 24 25 25 26 27 27 27 27 27 26 26 26 25 25 25 26 26 26 26 26 26 26 26 26 26 26 26 26 26 26 25 25 24 24 25 25 25 24 24 23 23 22 22 21 21 21 22 22 22 21 21 21 20 20 20 20 19 19 19 19 19 19 20 20 19 19 19 18 17 17 17 17 17 17 17 17 17 17 16 16
24 24 24 24 24 25 25 26 26 27 27 27 27 27 27 26 26 26 25 25 25 26 26 26 26 26 26 25 25 25 25 25 25 25 25 25 24 24 23 24 24 24 24 23 22 22 21 20 20 20 20 20 20 20 20 19 19 18 18 18 17 17 17 17 17 17 17 17 17 17 17 17 16 16 15 15 14 14 14 14 14 14 14 14 14
25 24 24 24 25 25 26 27 27 27 27 27 27 27 27 27 26 26 25 25 25 25 26 26 26 26 26 25 25 25 24 24 24 24 24 24 23 23 23 23 23 23 23 22 21 21 20 19 19 19 19 19 19 18 18 17 17 16 16 15 15 15 14 14 15 15 15 16 16 16 16 16 16 16 15 15 14 14 14 14 14 13 13 13 13
25 25 24 25 25 26 27 27 28 28 28 28 28 28 27 27 27 26 26 26 25 26 26 26 26 26 26 26 25 24 24 24 24 24 24 23 23 22 22 22 21 21 21 21 20 19 18 18 17 17 17 17 17 16 15 15 14 14 13 13 13 12 12 12 13 13 14 14 15 15 16 16 16 16 16 16 15 15 15 15 14 14 14 14 14
Wind_Direction
258 258 257 256 255 254 253 254 254 255 256 257 259 260 261 262 263 263 263 264 264 265 265 265 265 265 265 265 265 266 266 266 267 267 267 268 268 269 269 269 270 270 270 270 270 269 269 269 269 268 267 267 266 265 265 264 262 261 260 259 258 258 258 258 261 263 264 264 264 263 262 261 262 263 265 267 268 269 269 270 272 273 273 272 271
256 255 255 254 254 253 254 254 254 254 255 256 257 257 258 259 260 262 263 265 266 267 267 267 267 267 267 267 267 267 268 268 269 269 270 270 270 270 271 271 271 271 270 270 270 270 269 269 268 267 266 265 265 264 264 263 262 261 260 259 258 258 257 257 259 261 262 263 263 263 263 263 263 264 266 267 268 269 269 270 271 272 271 269 268
255 254 253 252 252 251 251 252 253 254 256 258 259 260 260 260 261 263 264 266 267 268 269 269 270 270 270 270 270 270 271 272 272 273 273 273 273 273 272 272 272 271 271 270 270 269 268 268 267 265 264 264 264 263 263 262 261 260 259 258 258 258 257 256 258 259 260 261 262 262 263 263 264 265 266 266 267 268 270 270 271 270 269 268 268
253 252 252 251 251 251 252 253 255 258 261 264 266 268 268 268 269 270 270 271 271 271 272 272 272 272 272 272 273 273 273 274 274 275 275 275 274 274 274 273 272 272 271 270 269 268 267 266 265 264 263 263 263 262 262 261 261 260 259 258 258 257 257 256 257 258 258 259 260 261 261 262 263 264 265 267 268 269 270 270 269 268 267 267 268
249 249 250 251 252 253 254 257 259 262 265 269 271 273 273 274 274 275 275 275 274 274 274 274 274 274 274 274 274 274 274 274 275 275 275 275 275 274 274 273 272 271 270 269 268 267 266 266 265 263 263 263 262 262 262 261 261 260 259 258 257 257 256 255 255 255 256 257 259 260 261 262 263 265 266 268 269 270 270 269 268 267 267 268 270
249 249 249 250 252 253 256 258 261 265 268 271 272 273 274 275 275 275 276 276 275 275 275 275 275 274 274 274 274 274 274 275 275 275 275 275 274 273 273 272 271 270 268 267 266 266 265 265 264 263 262 262 262 262 262 261 260 259 259 257 256 255 254 253 253 253 254 256 258 260 262 263 265 266 268 269 269 269 269 269 268 269 270 271 272
254 253 252 253 254 256 259 262 265 267 269 271 272 273 274 275 275 276 276 276 276 275 275 277 276 275 274 274 274 274 275 275 275 275 274 274 273 272 271 270 269 268 267 266 265 264 264 263 263 263 263 263 263 262 261 261 260 259 258 256 254 253 253 253 253 253 255 257 259 261 264 265 266 267 268 268 268 269 269 270 271 272 272 272 273
264 261 260 260 260 262 264 266 267 269 270 272 273 274 275 276 276 277 277 276 276 275 276 278 277 275 275 274 274 275 275 275 275 274 274 273 272 271 270 269 268 267 266 265 264 264 264 264 263 263 263 263 262 261 260 259 258 258 257 256 255 255 255 255 256 257 258 260 262 263 265 266 266 267 267 268 269 270 272 273 273 273 273 274 274
272 270 268 266 266 266 267 268 269 270 272 273 274 275 276 276 276 277 277 276 276 277 277 277 276 275 275 274 274 274 274 273 273 273 272 272 271 270 269 268 267 267 266 266 266 266 266 266 265 265 264 263 262 260 260 259 259 259 258 258 258 258 258 258 259 260 261 262 263 264 265 266 267 267 268 269 271 272 273 273 273 274 274 274 274
278 275 273 272 272 271 271 271 271 272 272 273 273 274 274 275 275 275 275 275 275 275 275 275 274 274 273 273 273 272 272 272 271 271 271 270 270 269 269 268 268 268 268 268 268 268 268 267 266 265 264 264 263 262 261 261 261 261 260 259 259 260 260 260 261 262 262 263 264 264 265 266 267 268 269 270 271 271 272 272 274 274 274 273 273
284 282 280 279 278 277 276 276 275 274 274 273 272 272 272 272 272 272 272 272 272 272 271 271 271 271 271 271 271 270 270 270 269 269 269 268 268 268 268 268 268 268 268 268 267 267 267 266 266 265 264 264 263 263 262 262 261 261 261 261 261 261 262 263 263 263 264 264 265 266 267 268 269 269 270 270 271 271 272 273 273 273 272 272 272
289 288 287 285 284 283 282 282 281 280 278 276 275 274 273 272 271 271 270 270 270 270 269 269 269 269 269 269 269 269 269 269 269 268 268 268 268 268 268 268 268 267 267 266 266 265 264 264 264 263 263 263 263 263 263 262 262 262 263 263 264 264 265 265 265 266 266 267 268 268 269 269 270 270 270 271 271 272 272 272 271 271 271 272 272
292 291 290 289 288 287 287 286 286 284 283 281 280 278 277 275 274 273 272 272 271 271 271 271 270 270 270 270 270 270 269 269 269 269 269 268 268 268 267 267 266 266 265 265 264 264 263 263 263 263 263 263 263 263 264 264 264 265 265 266 266 266 267 267 267 268 268 269 269 270 270 270 270 271 271 271 271 270 270 270 270 270 271 271 271
292 291 289 288 288 287 287 286 286 285 284 283 281 280 279 278 277 276 275 275 274 273 273 273 272 272 272 272 271 271 271 270 270 270 270 270 269 269 268 267 266 266 266 265 265 264 264 264 264 264 264 264 264 264 265 265 266 267 267 268 268 269 269 270 270 270 270 270 270 270 270 270 270 270 270 269 269 269 269 269 270 270 270 270 270
291 289 288 286 285 284 284 283 283 283 282 281 280 280 279 278 278 277 276 276 275 275 274 274 273 273 274 273 273 273 272 272 272 271 271 270 270 270 269 268 268 267 267 266 266 266 266 265 265 265 265 266 267 267 268 268 268 269 269 270 270 270 271 271 271 271 271 270 270 269 269 269 269 269 269 269 268 268 268 268 268 268 269 269 270
292 290 288 286 284 283 281 281 280 280 279 279 278 278 278 277 277 277 277 276 276 275 275 275 275 274 274 274 273 273 272 272 271 270 270 269 269 268 268 268 268 267 266 266 265 264 264 265 265 266 266 267 267 268 268 269 269 270 270 270 270 270 270 271 271 271 270 270 269 269 269 269 269 268 268 267 267 267 267 267 267 268 269 270 271
292 291 290 288 286 284 282 280 278 277 276 276 275 275 275 276 276 276 276 276 277 277 276 276 276 275 274 273 272 272 271 271 270 270 269 268 267 267 266 266 265 265 265 265 265 265 265 266 266 267 267 267 267 267 268 268 269 269 270 270 271 271 271 271 270 270 270 270 270 270 269 268 266 266 266 266 267 267 267 267 268 269 270 270 271
290 290 289 288 287 285 283 280 279 277 276 275 274 274 274 274 275 275 275 276 276 277 277 276 275 274 273 273 272 272 272 271 270 270 268 268 267 266 265 264 264 264 265 265 266 267 267 268 268 268 269 269 270 270 270 270 270 270 271 271 271 271 270 270 269 269 269 268 268 268 268 268 267 267 267 267 268 268 268 268 269 269 270 271 272
290 289 288 287 286 285 283 281 280 278 277 276 275 274 273 273 274 274 275 275 275 275 275 275 274 273 272 272 272 272 272 271 270 269 268 267 266 265 264 264 264 264 264 265 266 267 268 269 269 270 271 271 271 271 271 271 271 271 271 270 270 270 269 268 267 266 266 266 266 265 266 266 267 268 269 269 268 268 269 270 271 271 271 272 273
291 290 288 287 286 285 284 282 281 280 279 278 277 276 276 275 275 275 275 275 275 275 275 274 274 273 273 273 273 272 271 270 269 268 267 267 266 265 264 264 265 265 265 265 266 267 268 269 270 271 272 272 272 272 272 272 272 272 272 271 270 270 270 269 269 268 268 267 266 265 264 264 263 264 265 267 268 269 270 271 272 273 274 275 275
292 291 290 288 287 286 285 284 283 282 282 281 280 280 279 279 278 278 277 277 277 277 277 277 276 275 274 274 273 272 271 269 268 268 267 267 268 267 267 266 267 267 267 267 268 269 270 271 271 272 273 273 273 273 272 271 271 271 272 272 272 272 272 271 270 270 270 270 269 269 269 268 267 266 266 266 267 269 270 271 273 274 275 275 276
293 293 292 290 289 288 287 286 286 285 285 284 283 283 282 282 281 281 280 280 280 280 280 279 279 277 276 275 274 272 270 269 269 269 270 270 271 271 270 270 270 270 271 271 271 272 272 273 273 273 273 273 272 272 272 271 271 271 271 272 273 273 274 274 274 274 273 274 274 273 273 272 271 270 269 268 267 267 268 269 270 271 272 272 273
296 295 294 293 292 291 290 289 289 288 288 287 287 287 286 285 285 284 283 283 282 282 281 280 279 278 277 276 274 273 272 271 271 271 272 273 273 274 274 274 274 274 273 273 273 273 273 273 273 273 272 272 272 272 272 272 273 273 273 272 272 273 275 276 278 278 278 278 278 277 276 274 273 271 268 266 265 264 264 264 265 265 267 268 270
296 296 295 295 294 293 292 291 290 290 290 289 289 289 288 287 287 286 286 285 284 283 282 281 279 278 276 276 276 275 274 274 274 273 274 274 275 275 275 275 275 274 274 273 273 273 273 274 274 274 273 273 273 274 274 275 275 275 274 273 273 273 274 274 275 276 276 277 278 278 278 278 278 277 275 272 268 263 260 259 260 261 263 265 267
295 295 295 295 295 294 293 293 292 291 291 290 290 290 289 289 288 287 287 286 285 284 283 281 280 278 277 276 276 277 277 277 277 276 276 276 276 276 276 275 275 275 275 275 276 276 276 276 275 275 274 274 274 274 274 274 274 273 273 273 273 273 272 272 272 272 273 273 273 274 275 275 276 277 278 277 276 273 269 266 263 261 262 262 264
295 294 293 293 293 293 293 293 292 292 291 291 291 290 289 289 288 287 286 285 284 284 283 282 281 280 279 277 276 277 278 279 280 281 280 280 278 277 276 276 276 277 278 279 279 279 278 277 277 276 276 276 276 276 276 276 275 274 275 275 275 274 273 272 271 270 270 270 270 270 271 271 271 272 273 274 275 276 276 275 272 270 267 266 265
294 293 292 292 291 291 291 291 291 291 291 291 290 289 288 287 286 285 285 285 284 283 283 282 282 281 280 279 278 278 279 281 283 283 283 282 281 280 279 279 280 280 281 281 280 279 278 279 279 280 281 281 281 281 281 281 280 279 277 276 276 276 275 274 273 272 271 271 270 270 270 269 269 270 270 271 272 273 274 274 274 273 272 271 270
294 292 291 290 290 290 289 289 289 290 290 290 290 289 289 288 287 286 286 287 287 286 285 284 283 283 283 282 282 283 284 284 284 284 284 284 284 283 283 284 284 284 282 281 280 281 282 284 284 285 284 284 284 283 282 281 280 279 277 276 275 274 274 274 274 273 273 272 271 271 271 270 270 271 271 271 272 272 272 272 272 273 272 271 271
293 292 290 289 288 288 288 287 288 288 289 290 290 290 290 290 290 290 290 289 288 287 286 286 285 285 285 285 286 286 287 286 286 286 286 287 287 287 288 288 286 284 283 284 286 287 287 287 286 285 285 284 283 282 282 281 281 280 279 278 276 274 273 272 272 272 272 271 271 271 271 270 270 270 270 270 270 271 271 271 271 272 272 272 272
294 292 291 289 288 287 287 287 288 288 288 289 290 290 290 289 289 289 289 289 288 287 287 287 287 287 288 288 289 289 289 288 288 288 288 288 289 289 289 287 286 286 288 290 290 288 286 284 283 283 282 282 282 282 282 282 283 283 282 281 279 278 276 274 272 271 271 271 271 271 270 270 270 269 269 269 270 270 270 270 270 271 271 272 273
293 291 291 290 289 289 288 288 289 289 289 288 288 289 290 291 291 290 290 290 290 291 290 290 290 291 292 292 293 292 292 292 291 290 289 289 289 288 287 287 289 291 292 292 289 287 285 284 283 282 281 281 281 282 282 283 283 283 282 280 279 277 276 275 275 274 273 272 272 271 271 271 271 270 270 270 270 270 270 270 270 270 271 272 273
292 290 289 290 290 290 289 289 289 289 290 290 291 291 292 293 295 296 295 294 294 293 294 294 294 295 296 296 297 296 296 296 296 295 295 294 291 290 290 292 294 295 294 292 290 289 288 288 287 286 286 285 284 284 284 284 283 283 282 280 278 276 275 275 274 274 273 272 272 271 271 271 270 270 270 270 270 270 270 270 270 270 270 271 272
290 289 289 289 289 289 289 290 290 291 292 293 294 294 293 293 293 295 297 298 299 299 298 298 298 298 299 299 299 299 300 300 300 300 299 297 294 294 296 297 296 294 293 292 291 291 291 291 290 290 289 288 288 288 287 287 286 285 283 282 280 279 278 277 276 275 274 274 273 272 271 271 270 270 270 270 270 270 270 270 269 269 269 269 269
290 289 289 289 288 288 289 291 292 293 294 294 295 295 295 295 295 294 295 296 298 300 301 300 300 301 300 300 300 300 301 301 301 301 300 298 297 298 300 299 296 295 294 293 292 292 292 291 291 290 290 290 289 289 289 288 288 287 286 285 284 283 283 282 281 280 279 278 277 276 275 274 273 273 272 272 271 271 271 271 271 271 270 270 269
290 290 289 289 288 289 290 292 293 294 295 295 296 296 296 297 298 298 297 297 296 296 297 298 299 300 299 299 299 299 300 300 300 300 299 299 300 301 301 299 298 298 297 295 294 293 292 292 291 291 290 290 290 289 289 288 287 287 287 287 287 287 286 286 285 285 284 283 282 281 280 279 278 277 276 275 274 274 273 273 273 273 273 273 272
291 291 290 290 290 290 291 292 294 295 295 296 297 298 299 301 301 302 301 301 299 297 295 294 295 295 295 296 297 298 298 299 298 298 299 299 301 302 301 300 300 300 298 298 297 296 295 294 293 292 291 291 290 290 289 288 288 288 288 288 288 288 288 287 287 286 286 285 285 284 283 282 281 280 279 278 278 277 276 276 275 275 275 275 275
292 292 292 293 293 293 293 294 295 295 297 299 301 302 304 304 304 303 303 301 300 298 296 294 293 293 294 296 298 299 299 299 300 300 300 301 302 302 302 302 301 301 300 300 299 298 297 296 295 294 293 292 292 291 291 290 290 290 290 289 289 289 288 288 288 288 287 287 286 286 285 285 284 283 282 282 281 280 279 278 277 277 276 276 276
292 293 293 294 294 294 294 295 297 299 301 303 304 304 304 304 303 303 302 301 300 298 297 296 296 296 297 298 299 300 300 300 301 302 302 303 303 303 303 303 302 302 301 301 300 299 298 297 296 295 294 294 293 293 293 292 292 291 291 291 291 291 290 290 290 290 290 289 289 288 288 287 286 286 285 284 283 283 282 281 280 279 278 278 277
293 293 293 293 294 295 297 299 302 304 305 305 305 304 304 305 304 304 303 302 301 300 300 301 301 302 302 302 301 300 301 301 302 302 303 303 304 304 303 303 303 303 302 301 300 299 299 298 297 297 296 295 295 294 294 294 294 293 293 293 294 294 294 293 293 293 293 292 292 291 291 290 289 288 287 286 286 285 283 283 282 281 280 279 278
294 294 294 295 297 299 301 303 304 304 305 305 305 306 306 306 305 305 304 303 302 302 304 305 306 306 306 304 302 302 302 302 302 302 302 303 303 304 304 304 304 303 302 301 300 300 300 299 299 298 298 298 297 297 297 297 297 297 297 297 297 297 296 296 296 295 295 295 295 294 293 293 292 291 290 289 288 287 286 285 284 283 282 281 280
296 296 298 300 301 302 303 303 303 304 305 306 306 306 306 306 305 305 304 304 304 305 306 307 308 307 306 305 305 305 304 303 302 302 303 304 305 305 306 306 305 304 302 301 300 300 300 300 300 300 299 300 299 299 299 299 299 299 300 299 299 299 298 298 297 297 297 297 297 296 296 295 294 293 292 292 291 290 289 288 286 285 284 283 282
298 299 300 300 301 302 303 303 304 305 306 306 306 306 306 306 306 306 306 305 305 306 307 308 308 307 307 306 306 306 306 305 304 305 306 306 307 308 308 308 307 306 304 302 301 301 301 301 301 301 301 301 301 301 301 301 302 302 302 302 302 301 300 300 300 300 300 300 299 299 298 297 296 296 295 294 294 293 292 291 289 288 287 286 284
299 300 300 300 301 302 303 303 304 305 305 306 307 307 308 308 308 307 307 306 306 306 307 308 308 307 306 306 307 307 307 306 306 306 307 308 309 310 310 310 309 307 305 304 303 303 303 303 303 303 303 303 303 303 304 304 304 305 304 304 304 303 303 303 303 303 303 303 303 302 302 301 300 299 298 297 297 296 295 294 292 291 290 289 288
300 300 300 301 302 302 302 303 304 305 306 307 308 308 309 309 309 308 308 307 307 307 307 307 307 306 305 306 306 307 307 307 307 307 308 308 309 310 310 311 310 308 307 306 305 305 305 305 305 305 305 305 305 306 306 306 306 306 306 306 305 305 305 305 306 306 307 307 307 307 306 305 303 302 301 301 300 300 299 297 296 295 294 294 293
301 302 302 302 303 303 303 304 305 306 308 309 309 310 310 309 309 309 308 308 307 307 307 307 307 306 306 306 306 306 307 308 308 308 308 309 309 310 310 310 310 309 308 307 306 306 306 306 306 307 307 307 307 308 307 307 307 307 307 307 306 306 307 308 309 311 312 313 313 312 311 309 307 306 305 304 304 303 303 302 301 301 300 299 299
303 304 304 304 304 304 305 306 307 309 309 310 311 311 310 309 309 309 308 308 307 307 307 307 307 307 307 307 306 306 307 307 308 308 309 308 308 309 309 310 310 309 308 307 307 308 308 308 308 309 309 309 309 309 309 309 309 309 308 308 308 309 311 312 314 316 318 319 320 319 317 315 313 311 310 309 308 308 308 307 307 308 307 307 307
306 306 306 306 306 306 306 307 308 310 310 311 311 310 309 309 308 308 308 308 308 307 307 308 308 308 308 308 307 307 307 307 308 309 309 308 308 308 309 310 310 309 309 309 309 309 309 309 310 311 311 311 312 311 311 311 311 311 311 312 312 314 316 318 320 323 324 326 326 326 325 324 322 320 319 318 317 317 316 316 316 317 317 316 316
308 308 307 307 307 307 307 308 309 310 310 311 310 309 308 307 307 306 307 307 307 308 308 309 309 309 309 309 308 307 307 307 307 308 308 308 307 307 308 310 310 310 310 310 310 310 310 311 311 313 313 314 314 314 314 314 314 314 315 315 316 318 321 323 326 329 331 333 334 335 335 335 333 332 331 330 329 329 328 327 327 327 326 326 326
309 308 308 307 307 307 308 309 310 310 310 310 309 308 306 305 304 304 305 306 306 307 308 309 309 310 310 310 310 309 308 307 308 308 309 308 308 307 308 309 310 310 310 311 311 311 311 312 314 315 315 315 316 316 316 316 317 318 318 319 321 323 326 329 332 336 340 342 344 346 347 347 347 346 346 345 345 345 344 343 343 342 341 341 340
309 308 308 307 308 308 309 310 310 310 310 309 308 307 305 304 303 302 303 303 305 306 308 309 310 310 310 310 311 310 309 308 308 308 309 309 308 307 308 308 309 310 311 311 312 311 312 314 316 316 317 317 317 318 319 320 320 321 322 323 325 328 331 335 340 345 349 352 355 357 359 0 0 1 1 2 2 2 2 2 1 1 0 359 359
309 308 308 308 308 308 309 310 310 310 309 309 308 306 305 303 302 301 300 300 302 304 306 308 309 310 310 311 311 310 310 309 309 309 310 310 309 308 308 308 309 310 311 312 312 312 313 315 317 317 318 318 319 320 322 324 325 326 327 329 331 335 339 344 349 353 358 1 4 7 9 11 11 12 13 14 15 16 16 16 16 16 16 16 15
Height
2963 2963 2963 2963 2963 2963 2962 2962 2962 2963 2963 2963 2963 2963 2963 2963 2964 2964 2964 2964 2963 2963 2963 2963 2963 2964 2964 2964 2964 2964 2964 2964 2964 2964 2964 2964 2964 2964 2964 2964 2964 2964 2964 2963 2963 2963 2963 2963 2963 2963 2962 2962 2962 2962 2962 2962 2962 2961 2961 2961 2961 2962 2962 2961 2960 2962 2962 2962 2964 2966 2968 2969 2968 2968 2968 2968 2968 2969 2970 2970 2970 2971 2970 2970 2970
2958 2958 2958 2958 2958 2957 2957 2957 2957 2958 2958 2958 2958 2958 2957 2957 2957 2957 2958 2958 2958 2958 2958 2958 2958 2957 2957 2957 2957 2958 2958 2958 2957 2957 2957 2957 2957 2957 2957 2956 2957 2957 2956 2956 2956 2955 2955 2955 2956 2955 2954 2954 2955 2954 2954 2954 2953 2953 2953 2953 2954 2955 2955 2954 2954 2955 2955 2956 2957 2958 2959 2960 2960 2960 2961 2961 2960 2961 2962 2963 2963 2963 2963 2963 2963
2954 2953 2953 2952 2952 2952 2952 2952 2952 2952 2952 2952 2952 2952 2951 2951 2951 2952 2952 2952 2952 2952 2952 2951 2951 2951 2950 2951 2951 2951 2950 2950 2950 2950 2950 2950 2949 2949 2949 2949 2949 2949 2949 2949 2948 2948 2948 2948 2948 2947 2946 2946 2947 2947 2947 2946 2946 2946 2946 2946 2947 2948 2948 2948 2948 2949 2949 2949 2950 2951 2951 2952 2952 2952 2953 2953 2953 2953 2954 2955 2955 2955 2955 2955 2955
2950 2949 2949 2948 2948 2948 2947 2947 2947 2947 2947 2947 2946 2946 2945 2945 2945 2946 2946 2946 2946 2946 2945 2945 2944 2944 2944 2944 2943 2943 2943 2943 2942 2942 2942 2942 2942 2942 2941 2941 2941 2941 2941 2941 2940 2940 2940 2940 2940 2940 2939 2939 2939 2939 2939 2939 2939 2939 2939 2940 2940 2941 2941 2942 2942 2942 2942 2942 2942 2943 2944 2944 2945 2945 2944 2945 2945 2945 2946 2947 2947 2947 2948 2948 2948
2946 2945 2945 2944 2944 2944 2943 2943 2943 2942 2942 2942 2941 2940 2940 2939 2939 2939 2939 2939 2939 2939 2938 2938 2937 2937 2937 2937 2936 2936 2936 2935 2935 2935 2935 2934 2934 2934 2933 2933 2933 2933 2933 2933 2932 2932 2932 2933 2933 2932 2932 2932 2932 2932 2932 2932 2932 2932 2933 2933 2933 2934 2934 2935 2935 2935 2935 2935 2935 2935 2936 2936 2937 2937 2937 2937 2937 2937 2938 2938 2939 2940 2941 2941 2941
2941 2941 2940 2940 2939 2939 2938 2938 2938 2937 2936 2936 2935 2935 2934 2934 2933 2933 2933 2932 2932 2931 2931 2931 2930 2930 2930 2929 2929 2929 2928 2928 2927 2927 2927 2926 2926 2926 2926 2925 2925 2925 2925 2925 2925 2925 2925 2925 2926 2925 2925 2925 2925 2925 2926 2926 2926 2926 2926 2926 2927 2927 2927 2928 2928 2928 2928 2928 2928 2928 2928 2929 2930 2930 2930 2930 2929 2929 2929 2930 2932 2933 2934 2934 2933
2937 2936 2935 2934 2934 2934 2933 2933 2932 2931 2930 2930 2929 2928 2928 2927 2927 2926 2926 2926 2925 2925 2924 2924 2923 2923 2923 2922 2922 2921 2921 2920 2920 2919 2919 2918 2918 2918 2918 2918 2918 2918 2918 2918 2918 2918 2918 2919 2919 2918 2918 2919 2919 2919 2919 2919 2919 2919 2920 2920 2920 2920 2920 2921 2921 2921 2921 2921 2921 2921 2921 2922 2922 2922 2923 2922 2921 2921 2921 2923 2925 2926 2925 2925 2925
2932 2931 2930 2929 2928 2928 2927 2926 2925 2924 2924 2923 2922 2921 2921 2920 2920 2919 2919 2918 2918 2917 2917 2917 2916 2916 2915 2915 2914 2913 2913 2912 2911 2911 2911 2910 2910 2910 2910 2910 2910 2911 2911 2911 2911 2911 2911 2912 2912 2912 2912 2912 2912 2912 2912 2912 2912 2912 2913 2913 2913 2913 2914 2914 2914 2914 2915 2915 2914 2915 2915 2915 2915 2915 2915 2914 2913 2914 2915 2915 2916 2917 2917 2917 2917
2925 2924 2924 2923 2922 2921 2920 2919 2918 2917 2916 2915 2915 2914 2913 2913 2912 2911 2911 2910 2910 2909 2909 2909 2908 2908 2907 2907 2906 2905 2905 2904 2904 2903 2903 2903 2903 2903 2903 2903 2903 2904 2904 2904 2904 2905 2905 2905 2905 2905 2905 2905 2906 2905 2905 2906 2906 2906 2907 2907 2907 2907 2907 2907 2907 2908 2908 2908 2908 2908 2908 2908 2908 2908 2908 2908 2908 2908 2908 2907 2907 2908 2908 2908 2908
2919 2918 2917 2916 2915 2914 2913 2912 2911 2910 2909 2908 2908 2907 2906 2905 2905 2904 2903 2903 2902 2902 2902 2901 2901 2900 2900 2899 2899 2898 2898 2897 2897 2897 2897 2896 2896 2897 2896 2897 2897 2897 2897 2897 2898 2898 2898 2898 2898 2898 2898 2899 2899 2899 2899 2899 2899 2900 2900 2900 2900 2900 2900 2900 2901 2901 2901 2901 2901 2901 2901 2901 2901 2901 2901 2901 2901 2900 2899 2899 2899 2900 2899 2898 2899
2912 2911 2910 2909 2908 2907 2906 2905 2904 2903 2902 2902 2901 2900 2899 2899 2898 2897 2897 2896 2896 2895 2895 2894 2894 2893 2893 2893 2892 2892 2891 2891 2891 2891 2890 2890 2890 2890 2890 2890 2890 2890 2890 2890 2891 2891 2891 2891 2891 2891 2891 2892 2892 2892 2892 2892 2892 2893 2893 2893 2893 2893 2893 2893 2894 2894 2894 2894 2895 2894 2894 2894 2894 2894 2894 2894 2893 2892 2892 2892 2892 2891 2890 2889 2890
2905 2904 2903 2902 2901 2899 2898 2897 2896 2895 2895 2894 2893 2893 2892 2891 2891 2890 2889 2889 2888 2888 2888 2887 2887 2887 2886 2886 2886 2885 2885 2885 2885 2884 2884 2884 2884 2883 2883 2883 2883 2883 2883 2883 2884 2884 2884 2884 2884 2885 2885 2885 2885 2885 2885 2885 2885 2885 2885 2886 2886 2886 2886 2886 2886 2886 2886 2887 2887 2887 2886 2886 2886 2886 2887 2886 2885 2885 2884 2884 2883 2882 2881 2881 2881
2898 2897 2896 2894 2893 2892 2891 2889 2888 2887 2886 2886 2885 2884 2884 2883 2883 2882 2882 2881 2881 2881 2881 2880 2880 2880 2880 2880 2879 2879 2879 2878 2878 2878 2877 2877 2877 2877 2877 2877 2877 2877 2876 2876 2877 2877 2877 2877 2877 2878 2878 2878 2878 2878 2878 2878 2878 2878 2878 2878 2879 2879 2879 2878 2879 2879 2879 2879 2879 2878 2879 2879 2878 2878 2879 2878 2877 2876 2876 2875 2875 2874 2873 2873 2873
2893 2891 2890 2888 2887 2886 2884 2883 2882 2881 2880 2879 2878 2877 2877 2876 2876 2875 2875 2874 2874 2874 2874 2874 2874 2873 2873 2873 2872 2872 2872 2872 2871 2871 2871 2870 2870 2870 2870 2870 2870 2870 2870 2870 2870 2870 2870 2871 2871 2871 2871 2871 2871 2871 2871 2871 2871 2871 2871 2871 2871 2872 2871 2871 2871 2871 2871 2872 2871 2871 2871 2870 2870 2870 2870 2869 2868 2868 2868 2867 2867 2866 2865 2864 2864
2887 2886 2884 2883 2881 2880 2879 2877 2876 2875 2874 2873 2872 2871 2870 2870 2869 2869 2869 2868 2868 2868 2868 2867 2867 2867 2866 2866 2865 2865 2865 2865 2864 2865 2864 2863 2863 2863 2863 2863 2863 2864 2864 2864 2864 2864 2864 2864 2865 2865 2865 2865 2865 2865 2865 2865 2865 2865 2865 2864 2864 2864 2864 2864 2864 2863 2863 2863 2863 2863 2863 2862 2862 2862 2862 2861 2860 2860 2860 2859 2858 2857 2856 2855 2856
2881 2879 2878 2877 2876 2874 2873 2872 2871 2870 2869 2868 2866 2865 2865 2864 2863 2863 2862 2862 2862 2862 2861 2861 2860 2860 2859 2859 2859 2858 2858 2858 2858 2858 2857 2856 2857 2857 2857 2857 2857 2857 2857 2858 2858 2858 2858 2859 2859 2859 2859 2859 2859 2859 2859 2858 2858 2858 2857 2857 2857 2857 2857 2857 2856 2856 2855 2854 2854 2855 2855 2855 2855 2854 2853 2852 2852 2852 2852 2850 2850 2849 2848 2848 2848
2875 2873 2872 2871 2870 2869 2868 2867 2866 2864 2863 2862 2861 2861 2859 2858 2858 2857 2857 2856 2855 2855 2855 2854 2854 2853 2853 2853 2852 2852 2852 2852 2852 2852 2850 2850 2851 2851 2851 2851 2851 2851 2851 2852 2852 2852 2853 2853 2853 2853 2853 2853 2853 2852 2852 2851 2851 2851 2850 2850 2850 2849 2849 2849 2848 2848 2848 2847 2847 2847 2847 2847 2846 2845 2845 2844 2844 2845 2843 2841 2841 2841 2840 2840 2839
2870 2868 2867 2865 2864 2863 2862 2861 2860 2859 2858 2857 2856 2856 2855 2854 2853 2852 2852 2851 2850 2850 2849 2849 2848 2848 2847 2847 2846 2846 2846 2846 2846 2846 2845 2844 2845 2845 2845 2845 2845 2845 2846 2846 2846 2846 2846 2846 2846 2846 2846 2846 2846 2845 2845 2844 2844 2843 2843 2842 2842 2841 2841 2842 2841 2841 2841 2840 2839 2839 2838 2838 2837 2837 2837 2837 2837 2836 2833 2833 2834 2833 2831 2831 2832
2864 2863 2861 2860 2859 2857 2856 2855 2854 2854 2853 2852 2851 2851 2850 2849 2848 2848 2847 2846 2846 2845 2845 2844 2843 2843 2842 2842 2841 2841 2840 2840 2840 2840 2839 2839 2839 2840 2840 2840 2840 2840 2840 2840 2840 2840 2840 2840 2840 2839 2839 2839 2839 2838 2838 2837 2836 2836 2836 2835 2834 2834 2834 2834 2834 2833 2833 2832 2832 2832 2831 2831 2830 2829 2828 2828 2828 2827 2825 2825 2826 2825 2823 2824 2826
2858 2857 2856 2855 2853 2852 2851 2850 2849 2848 2847 2847 2846 2845 2845 2844 2844 2843 2842 2841 2840 2840 2839 2839 2838 2837 2837 2837 2836 2836 2835 2835 2835 2835 2834 2834 2834 2834 2835 2835 2835 2835 2835 2835 2834 2834 2834 2834 2834 2833 2833 2832 2832 2832 2831 2831 2830 2829 2828 2827 2827 2827 2827 2826 2825 2825 2824 2824 2824 2823 2823 2823 2824 2823 2822 2821 2820 2820 2818 2817 2817 2816 2816 2816 2817
2853 2852 2850 2849 2848 2847 2846 2845 2844 2843 2842 2841 2841 2840 2839 2838 2838 2837 2836 2835 2835 2834 2834 2833 2833 2832 2832 2832 2831 2831 2831 2831 2830 2830 2830 2830 2829 2829 2830 2830 2829 2829 2829 2829 2829 2829 2828 2828 2828 2827 2827 2826 2826 2825 2824 2824 2823 2822 2821 2819 2819 2819 2818 2817 2817 2816 2815 2815 2815 2814 2814 2814 2815 2815 2815 2814 2814 2813 2813 2811 2810 2810 2809 2808 2808
2848 2846 2845 2844 2843 2842 2841 2839 2838 2838 2837 2836 2835 2834 2833 2833 2832 2831 2831 2830 2830 2829 2829 2828 2828 2828 2827 2827 2826 2826 2826 2826 2826 2826 2825 2825 2825 2825 2824 2824 2824 2824 2823 2823 2823 2823 2823 2822 2822 2822 2821 2820 2819 2818 2817 2816 2815 2814 2814 2813 2812 2810 2808 2807 2807 2807 2807 2807 2807 2807 2807 2807 2807 2807 2808 2808 2808 2808 2807 2806 2805 2803 2802 2801 2801
2842 2841 2839 2838 2837 2836 2835 2834 2833 2832 2831 2830 2830 2829 2828 2827 2827 2826 2826 2825 2825 2824 2824 2824 2824 2823 2823 2822 2822 2821 2822 2822 2822 2821 2821 2821 2820 2820 2819 2819 2819 2818 2818 2817 2817 2817 2817 2816 2816 2815 2814 2813 2812 2811 2810 2809 2808 2808 2807 2806 2805 2803 2802 2800 2800 2799 2799 2799 2798 2798 2798 2798 2798 2799 2800 2801 2802 2802 2801 2800 2799 2797 2796 2795 2795
2836 2835 2834 2833 2832 2831 2830 2829 2828 2827 2826 2825 2825 2824 2823 2823 2822 2822 2821 2821 2820 2820 2819 2819 2819 2819 2818 2818 2817 2817 2817 2817 2817 2817 2817 2816 2816 2815 2815 2814 2813 2813 2812 2812 2811 2811 2811 2810 2810 2809 2808 2807 2806 2805 2804 2803 2802 2801 2800 2799 2798 2797 2796 2795 2794 2793 2792 2791 2790 2789 2788 2788 2787 2788 2789 2791 2793 2793 2793 2793 2793 2792 2791 2790 2789
2832 2830 2828 2827 2827 2826 2825 2824 2823 2823 2822 2821 2820 2820 2819 2818 2818 2817 2817 2816 2815 2815 2814 2814 2814 2814 2814 2813 2813 2812 2811 2811 2812 2811 2811 2811 2811 2810 2809 2808 2807 2807 2806 2806 2805 2805 2804 2804 2803 2802 2801 2801 2800 2799 2798 2797 2796 2794 2792 2791 2790 2790 2789 2788 2787 2786 2785 2784 2783 2782 2782 2781 2780 2780 2779 2779 2780 2781 2783 2784 2785 2785 2785 2784 2783
2827 2825 2824 2823 2822 2821 2820 2819 2819 2818 2817 2817 2816 2815 2815 2814 2813 2813 2812 2811 2811 2810 2810 2809 2809 2809 2808 2809 2809 2808 2807 2807 2806 2806 2806 2806 2805 2804 2803 2802 2801 2801 2800 2800 2799 2798 2797 2796 2795 2794 2794 2793 2792 2792 2791 2790 2789 2787 2786 2784 2783 2782 2782 2781 2780 2779 2778 2778 2777 2777 2777 2776 2775 2774 2773 2772 2772 2772 2772 2773 2774 2775 2776 2776 2775
2823 2821 2820 2818 2817 2816 2815 2815 2814 2813 2812 2812 2811 2811 2810 2810 2809 2808 2808 2807 2807 2806 2806 2805 2804 2804 2804 2804 2804 2804 2804 2803 2802 2801 2800 2799 2798 2798 2797 2796 2796 2795 2795 2793 2792 2791 2790 2789 2788 2787 2786 2786 2785 2784 2783 2782 2781 2780 2779 2778 2776 2775 2774 2773 2773 2772 2772 2771 2771 2770 2770 2769 2769 2768 2768 2767 2766 2766 2766 2765 2765 2765 2766 2766 2765
2818 2816 2815 2814 2813 2812 2811 2810 2810 2809 2808 2807 2807 2806 2806 2806 2805 2804 2804 2804 2803 2802 2802 2801 2800 2800 2800 2799 2799 2799 2799 2799 2798 2796 2795 2793 2792 2791 2790 2790 2790 2789 2787 2786 2785 2784 2783 2783 2782 2780 2779 2778 2777 2776 2775 2775 2774 2773 2772 2771 2770 2768 2767 2766 2765 2765 2764 2764 2763 2763 2763 2762 2762 2762 2761 2760 2760 2760 2759 2758 2757 2757 2757 2757 2755
2813 2812 2811 2810 2809 2808 2807 2806 2806 2805 2805 2804 2803 2803 2802 2802 2801 2800 2800 2800 2799 2798 2798 2797 2796 2795 2795 2794 2794 2794 2794 2794 2792 2791 2789 2788 2786 2785 2784 2783 2782 2781 2780 2779 2779 2778 2777 2776 2775 2773 2772 2771 2770 2769 2768 2767 2766 2765 2764 2763 2762 2761 2760 2759 2759 2758 2757 2756 2756 2756 2755 2755 2754 2754 2753 2752 2752 2752 2751 2750 2749 2749 2748 2747 2745
2808 2807 2806 2806 2805 2804 2803 2803 2802 2802 2801 2801 2800 2799 2799 2798 2798 2797 2796 2796 2795 2794 2794 2793 2792 2790 2790 2789 2789 2789 2788 2788 2788 2786 2784 2783 2781 2779 2778 2776 2774 2774 2774 2774 2773 2772 2771 2770 2769 2767 2766 2765 2764 2763 2761 2760 2759 2758 2756 2755 2754 2753 2752 2752 2751 2751 2750 2750 2749 2748 2748 2747 2746 2746 2745 2744 2744 2744 2743 2742 2741 2741 2740 2738 2737
2804 2803 2802 2802 2801 2800 2800 2799 2798 2798 2798 2798 2797 2796 2795 2794 2794 2793 2793 2792 2791 2790 2789 2788 2787 2786 2784 2784 2784 2783 2782 2782 2782 2781 2780 2778 2776 2774 2772 2770 2769 2769 2769 2768 2766 2765 2764 2763 2762 2761 2760 2759 2757 2756 2755 2754 2753 2751 2750 2748 2747 2746 2745 2744 2744 2743 2743 2742 2742 2741 2740 2740 2739 2738 2737 2737 2736 2736 2735 2734 2734 2733 2732 2731 2730
2801 2800 2799 2798 2797 2797 2796 2796 2795 2795 2794 2794 2793 2793 2792 2791 2790 2789 2788 2787 2787 2786 2785 2783 2782 2781 2780 2778 2777 2776 2776 2775 2775 2774 2773 2772 2770 2768 2767 2766 2765 2764 2762 2761 2759 2758 2757 2756 2754 2753 2752 2751 2750 2749 2748 2747 2746 2745 2743 2742 2741 2739 2739 2738 2737 2736 2736 2735 2734 2734 2733 2732 2731 2730 2729 2728 2728 2727 2726 2726 2725 2725 2724 2723 2722
2798 2797 2796 2795 2794 2793 2793 2792 2792 2791 2791 2790 2790 2789 2789 2788 2787 2786 2784 2782 2781 2780 2779 2778 2777 2776 2775 2773 2772 2770 2769 2768 2768 2767 2766 2764 2762 2761 2761 2760 2759 2758 2756 2755 2753 2751 2750 2749 2748 2746 2745 2744 2743 2742 2741 2740 2738 2737 2736 2735 2734 2733 2732 2731 2730 2729 2728 2728 2727 2726 2725 2724 2723 2722 2721 2720 2719 2718 2718 2717 2716 2716 2715 2715 2714
2794 2793 2793 2792 2791 2790 2790 2789 2788 2788 2787 2787 2786 2786 2785 2784 2784 2783 2782 2780 2778 2776 2774 2772 2771 2771 2769 2768 2767 2765 2764 2763 2761 2760 2759 2757 2755 2755 2755 2754 2752 2751 2751 2749 2747 2746 2744 2743 2742 2740 2739 2738 2737 2735 2734 2733 2732 2730 2729 2728 2727 2726 2725 2724 2723 2722 2721 2720 2719 2718 2717 2716 2715 2714 2713 2712 2711 2710 2709 2708 2707 2706 2705 2705 2704
2791 2790 2789 2789 2788 2787 2787 2786 2785 2785 2784 2783 2783 2782 2781 2781 2780 2779 2779 2778 2777 2775 2772 2769 2767 2766 2764 2763 2762 2761 2759 2758 2757 2755 2754 2751 2750 2750 2750 2748 2746 2745 2744 2743 2742 2740 2739 2737 2736 2735 2733 2732 2731 2729 2728 2727 2726 2725 2723 2722 2720 2719 2718 2717 2716 2714 2713 2712 2711 2710 2709 2708 2707 2706 2705 2704 2703 2701 2700 2699 2698 2696 2696 2695 2694
2787 2787 2786 2786 2785 2785 2784 2783 2782 2782 2781 2780 2779 2778 2777 2777 2776 2775 2774 2773 2772 2772 2770 2768 2765 2763 2761 2759 2758 2757 2755 2754 2753 2751 2750 2748 2746 2745 2744 2743 2741 2740 2739 2737 2736 2735 2733 2732 2730 2729 2727 2726 2725 2724 2722 2721 2720 2719 2718 2716 2715 2713 2712 2710 2709 2707 2706 2704 2703 2702 2701 2700 2698 2697 2696 2695 2694 2693 2691 2690 2689 2688 2686 2685 2684
2784 2784 2783 2782 2782 2781 2781 2780 2779 2779 2778 2777 2776 2775 2773 2772 2771 2771 2770 2769 2767 2766 2765 2764 2762 2760 2758 2756 2754 2753 2751 2749 2748 2746 2745 2744 2742 2741 2739 2738 2736 2735 2733 2732 2731 2729 2728 2726 2725 2723 2722 2720 2719 2718 2717 2716 2714 2713 2712 2710 2709 2707 2705 2704 2702 2701 2699 2698 2696 2695 2693 2692 2691 2689 2688 2687 2685 2684 2683 2682 2680 2679 2678 2677 2675
2781 2781 2780 2779 2779 2778 2778 2777 2776 2775 2774 2773 2772 2771 2770 2769 2768 2766 2765 2764 2763 2761 2760 2759 2758 2756 2755 2752 2750 2748 2747 2745 2743 2742 2740 2739 2737 2736 2734 2733 2731 2730 2728 2727 2725 2724 2723 2721 2720 2718 2717 2715 2714 2713 2711 2710 2709 2707 2706 2704 2703 2701 2699 2698 2696 2694 2693 2691 2690 2688 2687 2685 2683 2682 2680 2679 2677 2676 2675 2673 2671 2670 2669 2668 2667
2778 2778 2777 2777 2776 2775 2774 2773 2772 2771 2770 2769 2768 2767 2766 2765 2763 2762 2761 2759 2758 2757 2755 2754 2753 2751 2750 2748 2746 2744 2743 2741 2740 2738 2736 2734 2733 2731 2730 2728 2726 2725 2724 2722 2720 2719 2718 2716 2715 2714 2712 2711 2709 2708 2706 2705 2703 2702 2700 2699 2697 2695 2693 2692 2690 2688 2686 2685 2683 2681 2680 2678 2676 2674 2673 2671 2670 2668 2667 2665 2664 2662 2661 2659 2658
2776 2775 2774 2774 2773 2772 2771 2770 2769 2768 2767 2766 2764 2763 2762 2761 2759 2758 2756 2755 2754 2752 2751 2750 2748 2746 2745 2744 2742 2740 2739 2738 2736 2734 2732 2731 2729 2727 2726 2724 2722 2721 2719 2718 2716 2715 2713 2712 2710 2709 2708 2706 2704 2703 2701 2699 2698 2696 2694 2693 2691 2690 2688 2686 2684 2682 2681 2679 2677 2675 2673 2671 2669 2667 2666 2664 2662 2661 2659 2658 2656 2654 2653 2651 2650
2773 2772 2771 2770 2769 2769 2768 2767 2766 2765 2763 2762 2761 2759 2758 2757 2755 2754 2752 2751 2750 2748 2747 2745 2744 2742 2741 2739 2738 2736 2735 2734 2732 2730 2728 2727 2725 2723 2721 2720 2718 2716 2715 2714 2712 2711 2709 2708 2706 2705 2703 2701 2699 2698 2696 2694 2692 2691 2689 2688 2686 2685 2683 2681 2679 2677 2676 2674 2672 2669 2667 2665 2663 2661 2659 2657 2655 2654 2652 2650 2649 2647 2646 2644 2643
2770 2769 2768 2767 2766 2766 2765 2763 2762 2761 2760 2759 2757 2756 2754 2753 2751 2750 2748 2747 2746 2744 2743 2741 2740 2738 2737 2735 2734 2732 2731 2729 2728 2726 2724 2722 2721 2719 2717 2715 2714 2712 2711 2709 2708 2707 2705 2704 2702 2700 2699 2697 2695 2693 2691 2690 2688 2686 2685 2683 2682 2680 2678 2676 2674 2672 2671 2669 2666 2664 2662 2659 2657 2654 2652 2651 2649 2647 2645 2644 2642 2641 2639 2638 2636
2767 2766 2766 2765 2764 2762 2761 2760 2759 2758 2757 2755 2754 2752 2750 2749 2747 2746 2745 2743 2742 2741 2739 2738 2736 2734 2733 2731 2730 2728 2727 2725 2724 2722 2720 2718 2717 2715 2713 2711 2710 2708 2707 2705 2704 2702 2701 2699 2698 2696 2694 2693 2691 2689 2687 2685 2684 2682 2680 2679 2677 2675 2673 2672 2670 2668 2666 2664 2662 2659 2656 2654 2651 2649 2647 2645 2643 2641 2640 2638 2637 2635 2633 2632 2630
2765 2764 2763 2762 2761 2759 2758 2757 2756 2755 2753 2752 2750 2748 2746 2745 2743 2742 2741 2739 2738 2736 2735 2734 2732 2731 2729 2727 2726 2724 2723 2721 2719 2718 2716 2714 2713 2711 2709 2708 2706 2704 2703 2701 2700 2698 2697 2695 2694 2692 2690 2689 2687 2685 2684 2682 2680 2678 2676 2675 2673 2671 2670 2668 2666 2664 2662 2660 2657 2655 2652 2649 2646 2644 2642 2640 2638 2636 2635 2633 2632 2630 2629 2627 2625
2762 2761 2760 2759 2757 2756 2755 2754 2752 2751 2749 2748 2746 2744 2742 2741 2740 2738 2737 2735 2734 2733 2731 2730 2728 2727 2725 2723 2722 2720 2719 2717 2715 2714 2712 2710 2709 2707 2706 2704 2702 2701 2699 2698 2696 2695 2693 2691 2690 2688 2687 2685 2683 2682 2680 2678 2677 2675 2673 2671 2670 2668 2666 2665 2663 2661 2659 2656 2654 2651 2648 2645 2643 2640 2638 2636 2634 2632 2631 2629 2628 2626 2625 2623 2622
2759 2758 2756 2755 2754 2753 2751 2750 2749 2747 2745 2744 2742 2740 2739 2737 2736 2734 2733 2732 2730 2729 2727 2726 2724 2723 2721 2719 2718 2716 2715 2713 2711 2710 2708 2707 2705 2704 2702 2701 2699 2697 2696 2694 2693 2691 2690 2688 2686 2685 2683 2682 2680 2678 2677 2675 2673 2672 2670 2668 2666 2665 2663 2661 2660 2658 2655 2653 2651 2648 2645 2642 2640 2637 2635 2633 2631 2629 2628 2626 2624 2623 2622 2620 2619
2755 2754 2753 2752 2751 2749 2748 2747 2745 2743 2742 2740 2738 2736 2735 2733 2732 2730 2729 2728 2727 2725 2724 2722 2720 2719 2717 2715 2714 2712 2711 2709 2708 2706 2704 2703 2701 2700 2698 2697 2695 2694 2692 2691 2689 2688 2686 2684 2683 2681 2680 2678 2677 2675 2673 2672 2670 2669 2667 2665 2664 2662 2660 2659 2657 2655 2653 2650 2648 2645 2643 2640 2637 2635 2633 2631 2628 2627 2625 2623 2622 2620 2619 2617 2616
2752 2751 2749 2748 2747 2746 2745 2743 2742 2740 2738 2736 2735 2733 2731 2730 2728 2727 2726 2724 2723 2721 2720 2718 2717 2715 2713 2712 2710 2708 2707 2705 2704 2702 2701 2699 2698 2696 2695 2693 2692 2690 2689 2687 2686 2684 2683 2681 2680 2678 2677 2675 2673 2672 2670 2669 2667 2666 2664 2663 2661 2660 2658 2656 2655 2653 2651 2648 2646 2644 2641 2639 2636 2634 2631 2629 2627 2625 2623 2621 2620 2618 2617 2615 2614
2749 2747 2746 2745 2744 2742 2741 2740 2738 2736 2734 2733 2731 2729 2728 2726 2725 2723 2722 2720 2719 2718 2716 2715 2713 2711 2710 2708 2706 2705 2703 2702 2700 2699 2697 2696 2694 2693 2691 2690 2688 2687 2685 2684 2682 2681 2679 2678 2677 2675 2674 2672 2671 2669 2668 2666 2665 2664 2662 2661 2659 2658 2656 2655 2653 2651 2649 2647 2645 2643 2640 2638 2635 2633 2631 2629 2627 2624 2623 2621 2619 2617 2616 2614 2613
2745 2744 2743 2741 2740 2739 2737 2736 2734 2732 2731 2729 2727 2726 2724 2722 2721 2719 2718 2717 2715 2714 2712 2711 2710 2708 2706 2705 2703 2701 2700 2698 2697 2695 2694 2692 2691 2689 2688 2686 2685 2684 2682 2681 2679 2678 2676 2675 2674 2672 2671 2670 2668 2667 2666 2664 2663 2662 2660 2659 2658 2656 2655 2653 2652 2650 2648 2646 2644 2642 2640 2637 2635 2633 2631 2629 2627 2625 2623 2621 2619 2617 2616 2614 2612
2742 2741 2739 2738 2736 2735 2733 2732 2730 2728 2727 2725 2723 2722 2720 2718 2717 2715 2714 2713 2711 2710 2709 2707 2706 2704 2703 2701 2699 2698 2696 2695 2693 2692 2690 2689 2687 2686 2684 2683 2682 2680 2679 2678 2676 2675 2674 2672 2671 2670 2669 2667 2666 2665 2664 2662 2661 2660 2659 2658 2657 2655 2654 2652 2651 2649 2647 2645 2644 2642 2640 2638 2636 2634 2632 2630 2628 2626 2624 2622 2620 2618 2617 2615 2613